Location: Altmatt
(47.1333°N, 8.7000°E)
Time: 19:00:40
(UTC+00:00)

Cosmos 1842 Rocket - Pass Details

Date: 13 July 2020
Orbit: 605 x 634 km, 82.5° (Epoch: 12 August)

Event Time Altitude Azimuth Distance (km) Brightness Sun altitude
Rises 20:44:50 0° 346° (NNW) 2,877 8.3 -11.7°
Reaches altitude 10° 20:47:05 10° 343° (NNW) 1,966 7.3 -11.9°
Maximum altitude 20:51:20 56° 266° (W) 724 4.1 -12.4°
Enters shadow 20:55:33 10° 188° (S) 1,947 5.7 -12.8°
